Miscellaneous Local Product
Issued by NWS Hastings, NE

Home | Current Version | Previous Version | Graphics & Text | Print | Product List | Glossary On
Versions: 1 2 3 4 5 6 7 8 9 10 11 12 13 14 15 16 17 18 19 20 21 22 23 24 25 26 27 28 29 30 31 32 33 34 35 36 37 38 39 40 41 42 43 44 45 46 47 48 49 50
000
AXUS43 KGID 271802
MISGRI

GID CWA HOURLY WEATHER ROUNDUP
NATIONAL WEATHER SERVICE HASTINGS NE
100 PM CDT WED JUL 27 2016

NOTE: "FAIR" INDICATES FEW OR NO CLOUDS BELOW 12,000 FEET WITH NO
SIGNIFICANT WEATHER AND/OR OBSTRUCTIONS TO VISIBILITY.

...SOUTH CENTRAL NEBRASKA...

CITY           SKY/WX    TMP DP  RH WIND       PRES   REMARKS
GRAND ISLAND   SUNNY     83  63  50 VRB5      30.07F
HASTINGS       SUNNY     81  65  58 NE8       30.09S
KEARNEY        SUNNY     82  19   9 NE8       30.10F
ORD            SUNNY     80  62  54 VRB3      30.06F
YORK           SUNNY     82  68  61 N7        30.05S
AURORA         SUNNY     81  64  55 NW3       30.06F
LEXINGTON      SUNNY     80  66  62 CALM      30.10F
HOLDREGE       SUNNY     79  67  65 E8        30.09F
HEBRON         PTSUNNY   82  62  49 NW3       30.05F

...NEBRASKA PANHANDLE...

CITY           SKY/WX    TMP DP  RH WIND       PRES   REMARKS
CHADRON        SUNNY     81  60  48 NE15      30.11R
ALLIANCE       SUNNY     81  60  48 VRB7      30.13R
SCOTTSBLUFF    SUNNY     79  57  46 S6        30.15F
SIDNEY         SUNNY     83  58  42 MISG      30.17S

...WESTERN AND NORTH CENTRAL NEBRASKA...

CITY           SKY/WX    TMP DP  RH WIND       PRES   REMARKS
VALENTINE      CLOUDY    83  59  44 MISG      30.07R
AINSWORTH      PTSUNNY   79  65  61 CALM      30.08S
ONEILL         SUNNY     81  59  47 W5        30.06F
BROKEN BOW     MOSUNNY   76  65  68 VRB3      30.10F
IMPERIAL       MOSUNNY   83  60  45 NE9       30.12F
NORTH PLATTE   SUNNY     81  62  52 N12       30.11F
MCCOOK         TSTM      71  66  84 N7        30.09F

...EASTERN NEBRASKA...

CITY           SKY/WX    TMP DP  RH WIND       PRES   REMARKS
NORFOLK        SUNNY     82  63  52 N12       30.03S
SO SIOUX CITY  SUNNY     86  68  54 NE5       29.99F
TEKAMAH        SUNNY     81  66  60 NE7       30.00S
COLUMBUS       SUNNY     82  63  51 N10G16    30.03S
ALBION         SUNNY     78  65  64 CALM      30.06S
OMAHA EPPLEY   MOSUNNY   86  66  51 NW9       29.98S
OFFUTT AFB     MOSUNNY   85  67  53 W13       29.98S
MILLARD        MOSUNNY   84  66  55 W10       29.98F
LINCOLN        MOSUNNY   86  63  45 NW10      30.00F
NEBRASKA CITY  PTSUNNY   82  71  69 SW9       30.00F
BEATRICE       PTSUNNY   83  69  61 W3        30.02F
FALLS CITY     MOSUNNY   86  72  62 VRB5      29.99F HX  92

...NORTHERN KANSAS...

CITY           SKY/WX    TMP DP  RH WIND       PRES   REMARKS
GOODLAND       SUNNY     83  64  52 NE8       30.14S
HILL CITY      SUNNY     87  66  49 CALM      30.06F
NORTON         CLEAR     88  54  31 NE6       30.07S
SMITH CENTER     N/A     86  64  48 SE5       30.06F
BELOIT         SUNNY     84  70  61 CALM      30.02S
HAYS           PTSUNNY   84  66  54 SE5       30.05S
RUSSELL        CLOUDY    86  70  58 CALM      30.03S HX  90
CONCORDIA      CLOUDY    83  71  67 CALM      30.03F
SALINA         PTSUNNY   91  71  51 CALM      30.01F HX  97
TOPEKA         MOSUNNY   90  69  50 VRB5      29.99F HX  94



USA.gov is the U.S. government's official web portal to all federal, state and local government web resources and services.